Regional Weather Roundup
Issued by NWS Sterling, VA

Home | Current Version | Previous Version | Graphics & Text | Print | Product List | Glossary On
Versions: 1 2 3 4 5 6 7 8 9 10 11 12 13 14 15 16 17 18 19 20 21 22 23 24 25 26 27 28 29 30 31 32 33 34 35 36 37 38 39 40 41 42 43 44 45 46 47 48 49 50
000
ASUS41 KLWX 211010
RWRLWX

REGIONAL WEATHER ROUNDUP
NATIONAL WEATHER SERVICE BALTIMORE MD/WASHINGTON DC
600 AM EDT THU AUG 21 2014

Note: "FAIR" indicates few or no clouds below 12,000 feet
with no significant weather and/or obstructions to visibility.
 TC=TEMPERATURE CELSIUS

 * =Non NWS site. Station does not report precipitation (e.g. rain,
    snow, etc.), thunder, or fog.

DCZ001-MDZ009-015-VAZ040>042-051-053>054-211100-
WASHINGTON METRO
  /KDAA//-FT BELVOIR

CITY           SKY/WX    TMP DP  RH WIND       PRES   REMARKS
WASHINGTON NAT PTCLDY    72  66  83 CALM      30.02R
DULLES         PTCLDY    62  62 100 CALM      30.02R FOG
ANDREWS AFB    CLEAR     67  67  99 CALM      30.02R
QUANTICO       PTCLDY    67  65  93 NW6       30.02S
COLLEGE PARK*  PTCLDY    66  66 100 CALM      30.02R
LEESBURG*      PTCLDY    63  63 100 CALM      30.03R FOG
MANASSAS*      CLOUDY    66  66 100 CALM      30.02R VSB 1/4
GAITHERSBURG*  CLEAR     64  63  94 CALM      30.05S

$$

MDZ006>007-011-014-211100-
BALTIMORE METRO

CITY           SKY/WX    TMP DP  RH WIND       PRES   REMARKS
BWI AIRPORT    MOCLDY    64  63  94 CALM      30.01R
MD SCIENCE CTR   N/A     73  69  87 MISG      30.02R
MARTIN STATE   CLOUDY    73  72  94 CALM      30.02S
ANNAPOLIS      CLEAR     73  70  90 CALM      30.00R
FORT MEADE*    CLOUDY    63  61  94 CALM      30.04R

$$

MDZ012-015-019>023-211100-
MARYLAND EASTERN SHORE

CITY           SKY/WX    TMP DP  RH WIND       PRES   REMARKS
OCEAN CITY     MOCLDY    70  68  93 CALM      30.01S FOG
SALISBURY      PTCLDY    70  65  84 CALM      30.01S
BAY BRIDGE AP*   N/A     70  70 100 E3        30.01R
CAMBRIDGE*     MOCLDY    72  68  88 CALM      30.00S
EASTON*        CLEAR     69  69 100 CALM      30.05R

$$

MDZ017>025-211100-
SOUTHERN MARYLAND

CITY           SKY/WX    TMP DP  RH WIND       PRES   REMARKS
PATUXENT RIVER CLOUDY    74  71  91 CALM      30.00R
ST INIGOES     MOCLDY    73  68  84 S3        29.99S
LEONARDTOWN*   CLOUDY    70  68  94 CALM      30.02R

$$

MDZ003>005-211100-
NORTH CENTRAL MARYLAND

CITY           SKY/WX    TMP DP  RH WIND       PRES   REMARKS
FREDERICK*     CLOUDY   N/A N/A N/A CALM      30.05R FOG
HAGERSTOWN APT CLOUDY    68  65  90 CALM      30.03R
WESTMINSTER*   CLEAR     66  66 100 CALM      30.03R

$$

MDZ501>502-211100-
WESTERN MARYLAND

CITY           SKY/WX    TMP DP  RH WIND       PRES   REMARKS
OAKLAND*       PTCLDY    64 N/A N/A W7        30.13R HAZE
CUMBERLAND*    CLOUDY    70  68  94 CALM      30.07R VSB 1/2

$$

VAZ025>031-211100-
SHENANDOAH VALLEY

CITY           SKY/WX    TMP DP  RH WIND       PRES   REMARKS
WINCHESTER*    FOG       68  66  94 CALM      30.03R VSB 1/2
STAUNTON*      FOG       64  63  95 CALM      30.08R VSB 1/4

$$

WVZ021-048>050-054>055-211100-
EASTERN WEST VIRGINIA PANHANDLE

CITY           SKY/WX    TMP DP  RH WIND       PRES   REMARKS
MARTINSBURG    FOG       67  64  90 CALM      30.03R VSB 1/4
PETERSBURG*    NOT AVBL

$$

VAZ036>039-050-211100-
CENTRAL FOOTHILLS

CITY           SKY/WX    TMP DP  RH WIND       PRES   REMARKS
CHARLOTTESVILL FOG       65  64  97 CALM      30.03R VSB 1/2
ORANGE*        FOG       66  64  94 CALM      30.04R VSB 1/4

$$

VAZ055>057-211100-
NORTH AND CENTRAL PIEDMONT

CITY           SKY/WX    TMP DP  RH WIND       PRES   REMARKS
FREDERICKSBRG* CLEAR     66  66 100 CALM      30.01R
STAFFORD*      CLEAR     64  64 100 CALM      30.05R FOG

$$

NCZ024-NYZ072-PAZ021-071-VAZ022-071-211100-
OTHER REGIONAL OBSERVATIONS

CITY           SKY/WX    TMP DP  RH WIND       PRES   REMARKS
NEW YORK CITY  CLOUDY    66  63  90 CALM      30.06S
PHILADELPHIA   PTCLDY    69  64  84 SE5       30.03R
PITTSBURGH     PTCLDY    66  65  96 CALM      30.02R
ROANOKE        PTCLDY    70  64  81 W7        30.08R
RICHMOND       PTCLDY    71  68  90 CALM      30.01R
RALEIGH        MOCLDY    72  70  93 CALM      30.02R FOG

$$

ANZ530>537-211100-
MARINE OBSERVATIONS

STATION/POSITION TIME  TEMP    WIND        PRES
                       AIR SEA DIR/SP/G
                 (UTC) (F)     (DEG/KT/KT) (MB)
THOMAS PT LIGHT  1000   75 78  180/  7/  8 1016.6R
BALT KEY BRIDGE  1000   73     110/  3/  4 1016.0R
COVE POINT       1000   75     210/  4/  5 1015.7R
LEWISETTA        1000   74 79  190/  3/  4 1015.4R
SOLOMONS ISLAND  1000      80                N/A
PINEY POINT      1000          190/  6/  7   N/A

$$




USA.gov is the U.S. government's official web portal to all federal, state and local government web resources and services.